Location: Ammerl�gen
(47.2167°N, 9.6000°E)
Time: 19:14:07
(UTC+00:00)

DMSP 5D-2 F13 DEB - Pass Details

Date: 26 October 2021
Orbit: 758 x 780 km, 98.7° (Epoch: 03 December)

Event Time Altitude Azimuth Distance (km) Brightness Sun altitude
Exits shadow 19:56:25 23° 315° (NW) 1,581 ? -37.7°
Drops below altitude 10° 19:58:34 10° 331° (NNW) 2,300 ? -38.0°
Sets 20:01:02 0° 339° (NNW) 3,229 ? -38.4°
